Weather History for KDAL - October, 2011

Change the Weather History Date:

Tuesday, October 11, 2011

  Actual Average Record
Temperature  
Mean Temperature 72 °F -  
Max Temperature 84 °F 77 °F 88 °F (1999)
Min Temperature 63 °F 58 °F 57 °F (1998)
Cooling Degree Days 8    
Growing Degree Days 22 (Base 50)    
Moisture  
Dew Point 60 °F    
Average Humidity 67    
Maximum Humidity 90    
Minimum Humidity 42    
Precipitation  
Precipitation 0.00 in - - ()
Sea Level Pressure  
Sea Level Pressure 29.88 in    
Wind  
Wind Speed 1 mph (SSW)    
Max Wind Speed 9 mph    
Max Gust Speed -    
Visibility 10 miles    
Events      
Averages and records for this station are not official NWS values.
T = Trace of Precipitation, MM = Missing Value Source: NWS Daily Summary

Daily Weather History Graph

Daily Weather History Graph

Search for Another Location

Airport or City:

Trip Planner

Search our weather history database for the weather conditions in past years. The results will help you decide how hot, cold, wet, or windy it might be!

Date:

Astronomy

Oct. 11, 2011 Rise Set
Actual Time 7:28 AM CDT 6:59 PM CDT
Civil Twilight 7:03 AM CDT 7:24 PM CDT
Nautical Twilight 6:35 AM CDT 7:52 PM CDT
Astronomical Twilight 6:06 AM CDT 8:21 PM CDT
Moon 6:35 PM CDT (10/11) 7:05 AM CDT (10/11)
Length of Visible Light 12h 20m
Length of Day
11h 31m
Full, 100% of the Moon is Illuminated
Oct 11
Full
Oct 11
Full
Oct 19
Last Quarter
Oct 26
New
Nov 2
First Quarter

Hourly Weather History & Observations

Time (CDT) Temp. Heat Index Dew Point Humidity Pressure Visibility Wind Dir Wind Speed Gust Speed Precip Events Conditions
12:53 AM 64.0 °F - 61.0 °F 90% 29.96 in 10.0 mi Calm Calm - N/A   Scattered Clouds
1:53 AM 64.9 °F - 61.0 °F 87% 29.95 in 10.0 mi Calm Calm - N/A   Scattered Clouds
2:53 AM 63.0 °F - 60.1 °F 90% 29.94 in 10.0 mi Calm Calm - N/A   Scattered Clouds
3:53 AM 64.9 °F - 61.0 °F 87% 29.93 in 10.0 mi Calm Calm - N/A   Mostly Cloudy
4:53 AM 64.0 °F - 60.1 °F 87% 29.92 in 10.0 mi Calm Calm - N/A   Scattered Clouds
5:53 AM 64.0 °F - 61.0 °F 90% 29.93 in 10.0 mi Calm Calm - N/A   Mostly Cloudy
6:53 AM 63.0 °F - 60.1 °F 90% 29.93 in 10.0 mi Calm Calm - N/A   Scattered Clouds
7:53 AM 63.0 °F - 60.1 °F 90% 29.94 in 9.0 mi Calm Calm - N/A   Mostly Cloudy
8:53 AM 66.2 °F - 60.8 °F 83% 29.96 in 7.0 mi Calm Calm - N/A   Scattered Clouds
9:53 AM 70.0 °F - 63.0 °F 78% 29.94 in 8.0 mi Calm Calm - N/A   Scattered Clouds
10:53 AM 73.9 °F - 63.0 °F 68% 29.94 in 10.0 mi SSW 4.6 mph - N/A   Scattered Clouds
11:53 AM 77.0 °F - 62.1 °F 60% 29.93 in 10.0 mi Calm Calm - N/A   Scattered Clouds
12:53 PM 79.0 °F - 62.1 °F 56% 29.91 in 10.0 mi Variable 3.5 mph - N/A   Mostly Cloudy
1:53 PM 81.0 °F 81.7 °F 61.0 °F 50% 29.87 in 10.0 mi SSW 9.2 mph - N/A   Scattered Clouds
2:53 PM 80.6 °F 81.5 °F 60.8 °F 51% 29.86 in 10.0 mi Variable 3.5 mph - N/A   Mostly Cloudy
3:53 PM 82.0 °F 82.1 °F 59.0 °F 45% 29.82 in 10.0 mi Calm Calm - N/A   Scattered Clouds
4:53 PM 82.9 °F 82.6 °F 57.9 °F 42% 29.80 in 10.0 mi SSW 6.9 mph - N/A   Mostly Cloudy
5:53 PM 81.0 °F 81.0 °F 57.0 °F 44% 29.78 in 10.0 mi SW 9.2 mph - N/A   Mostly Cloudy
6:53 PM 80.1 °F 80.2 °F 55.9 °F 43% 29.78 in 10.0 mi SW 4.6 mph - N/A   Mostly Cloudy
7:53 PM 77.0 °F - 57.0 °F 50% 29.78 in 10.0 mi South 4.6 mph - N/A   Mostly Cloudy
8:53 PM 77.0 °F - 55.9 °F 48% 29.81 in 10.0 mi Calm Calm - N/A   Overcast
9:53 PM 71.1 °F - 57.9 °F 63% 29.81 in 10.0 mi Calm Calm - N/A   Scattered Clouds
10:53 PM 72.0 °F - 57.0 °F 59% 29.81 in 10.0 mi South 4.6 mph - N/A   Scattered Clouds
11:53 PM 70.0 °F - 57.0 °F 63% 29.80 in 10.0 mi SE 4.6 mph - N/A   Mostly Cloudy